Satellite: HRBE Catalog number: 37855 Epoch time: 13017.88795709 Element set: 396 Inclination: 101.7123 deg RA of node: 162.5491 deg Eccentricity: 0.0240326 Arg of perigee: 097.0806 deg Mean anomaly: 265.7759 deg Mean motion: 14.82529318 rev/day Decay rate: 6.272e-05 rev/day^2 Epoch rev: 6617 Checksum: 330
Satellite: RS-39 Catalog number: 38051 Epoch time: 13017.89383505 Element set: 86 Inclination: 051.6325 deg RA of node: 213.5885 deg Eccentricity: 0.0013322 Arg of perigee: 089.9823 deg Mean anomaly: 050.0205 deg Mean motion: 15.28688584 rev/day Decay rate: 1.2399e-04 rev/day^2 Epoch rev: 5476 Checksum: 321
Satellite: E-STAR Catalog number: 38079 Epoch time: 13017.85295642 Element set: 814 Inclination: 069.4824 deg RA of node: 179.0194 deg Eccentricity: 0.0671556 Arg of perigee: 333.3423 deg Mean anomaly: 023.4567 deg Mean motion: 14.32460538 rev/day Decay rate: 3.2275e-04 rev/day^2 Epoch rev: 4812 Checksum: 313
Satellite: GOLIAT Catalog number: 38085 Epoch time: 13017.88454244 Element set: 770 Inclination: 069.4800 deg RA of node: 180.1361 deg Eccentricity: 0.0678968 Arg of perigee: 333.9397 deg Mean anomaly: 022.8942 deg Mean motion: 14.30945466 rev/day Decay rate: 3.1005e-04 rev/day^2 Epoch rev: 4809 Checksum: 323
Satellite: HORYU-2 Catalog number: 38340 Epoch time: 13017.95340474 Element set: 330 Inclination: 098.2011 deg RA of node: 324.4969 deg Eccentricity: 0.0013173 Arg of perigee: 013.7555 deg Mean anomaly: 346.3996 deg Mean motion: 14.70558445 rev/day Decay rate: 1.704e-05 rev/day^2 Epoch rev: 3603 Checksum: 289
Satellite: RS-40 Catalog number: 38736 Epoch time: 13017.63136672 Element set: 164 Inclination: 082.4762 deg RA of node: 249.0066 deg Eccentricity: 0.0018329 Arg of perigee: 299.9952 deg Mean anomaly: 059.9311 deg Mean motion: 12.42649843 rev/day Decay rate: 1.0e-07 rev/day^2 Epoch rev: 2154 Checksum: 307
Satellite: PROITERES Catalog number: 38756 Epoch time: 13017.83484001 Element set: 422 Inclination: 098.2701 deg RA of node: 092.0346 deg Eccentricity: 0.0011781 Arg of perigee: 222.0802 deg Mean anomaly: 137.9494 deg Mean motion: 14.74050757 rev/day Decay rate: 7.50e-06 rev/day^2 Epoch rev: 1924 Checksum: 276
Satellite: AENEAS Catalog number: 38760 Epoch time: 13010.30862094 Element set: 0038 Inclination: 064.6736 deg RA of node: 037.6222 deg Eccentricity: 0.0216021 Arg of perigee: 256.7016 deg Mean anomaly: 100.9927 deg Mean motion: 14.80037176 rev/day Decay rate: 4.933e-05 rev/day^2 Epoch rev: 00558 Checksum: 275
Satellite: CSSWE-D Catalog number: 38761 Epoch time: 13010.31251606 Element set: 0035 Inclination: 064.6743 deg RA of node: 037.6425 deg Eccentricity: 0.0217594 Arg of perigee: 256.6983 deg Mean anomaly: 100.9785 deg Mean motion: 14.79845475 rev/day Decay rate: 4.126e-05 rev/day^2 Epoch rev: 00560 Checksum: 303
Satellite: CXBN-E Catalog number: 38762 Epoch time: 13010.30523402 Element set: 0036 Inclination: 064.6804 deg RA of node: 037.6257 deg Eccentricity: 0.0218357 Arg of perigee: 256.1531 deg Mean anomaly: 101.5196 deg Mean motion: 14.79997447 rev/day Decay rate: 5.383e-05 rev/day^2 Epoch rev: 00567 Checksum: 296
Satellite: OBJECT F Catalog number: 38763 Epoch time: 13010.30916126 Element set: 0035 Inclination: 064.6735 deg RA of node: 037.6208 deg Eccentricity: 0.0218061 Arg of perigee: 256.7365 deg Mean anomaly: 100.9342 deg Mean motion: 14.79862223 rev/day Decay rate: 3.917e-05 rev/day^2 Epoch rev: 00561 Checksum: 280
Satellite: CINEMA-G Catalog number: 38764 Epoch time: 13010.30690144 Element set: 0034 Inclination: 064.6741 deg RA of node: 037.6060 deg Eccentricity: 0.0217613 Arg of perigee: 256.7942 deg Mean anomaly: 100.8813 deg Mean motion: 14.79914111 rev/day Decay rate: 4.197e-05 rev/day^2 Epoch rev: 00557 Checksum: 278
Satellite: CP5 Catalog number: 38765 Epoch time: 13010.36660122 Element set: 0036 Inclination: 064.6738 deg RA of node: 037.3618 deg Eccentricity: 0.0216618 Arg of perigee: 256.5143 deg Mean anomaly: 101.1776 deg Mean motion: 14.80096794 rev/day Decay rate: 5.184e-05 rev/day^2 Epoch rev: 00558 Checksum: 301
Satellite: RAIKO Catalog number: 38852 Epoch time: 13017.44764676 Element set: 112 Inclination: 051.6400 deg RA of node: 134.4045 deg Eccentricity: 0.0015474 Arg of perigee: 159.4678 deg Mean anomaly: 200.6920 deg Mean motion: 15.58914824 rev/day Decay rate: 5.0397e-04 rev/day^2 Epoch rev: 1624 Checksum: 294
Satellite: FITSAT 1 Catalog number: 38853 Epoch time: 13017.39896661 Element set: 109 Inclination: 051.6416 deg RA of node: 134.0921 deg Eccentricity: 0.0012206 Arg of perigee: 173.6472 deg Mean anomaly: 186.4583 deg Mean motion: 15.60442270 rev/day Decay rate: 6.3133e-04 rev/day^2 Epoch rev: 1629 Checksum: 289
Satellite: TechEdSat Catalog number: 38854 Epoch time: 13017.48311071 Element set: 120 Inclination: 051.6350 deg RA of node: 132.3895 deg Eccentricity: 0.0010568 Arg of perigee: 181.4720 deg Mean anomaly: 178.6207 deg Mean motion: 15.64155210 rev/day Decay rate: 9.8215e-04 rev/day^2 Epoch rev: 1632 Checksum: 267
Satellite: F 1 Catalog number: 38855 Epoch time: 13017.68744714 Element set: 125 Inclination: 051.6375 deg RA of node: 131.5054 deg Eccentricity: 0.0011382 Arg of perigee: 184.8871 deg Mean anomaly: 175.1993 deg Mean motion: 15.63773596 rev/day Decay rate: 9.2389e-04 rev/day^2 Epoch rev: 1624 Checksum: 327
Satellite: WeWish Catalog number: 38856 Epoch time: 13017.45912059 Element set: 141 Inclination: 051.6456 deg RA of node: 129.9613 deg Eccentricity: 0.0008341 Arg of perigee: 181.7075 deg Mean anomaly: 178.3567 deg Mean motion: 15.72728304 rev/day Decay rate: 2.01489e-03 rev/day^2 Epoch rev: 1624 Checksum: 305
/EX